Regional Weather Roundup
Issued by NWS

Home | Current Version | Previous Version | Graphics & Text | Print | Product List | Glossary On
Versions: 1 2 3 4 5 6 7 8 9 10 11 12 13 14 15 16 17 18 19 20 21 22 23 24 25 26 27 28 29 30 31 32 33 34 35 36 37 38 39 40 41 42 43 44 45 46 47 48 49 50
000
ASUS43 KIND 180559
RWRIN

WEATHER ROUNDUP FOR INDIANA
NATIONAL WEATHER SERVICE INDIANAPOLIS IN
200 AM EDT THU SEP 18 2014

NOTE: "FAIR" INDICATES FEW OR NO CLOUDS BELOW 12,000 FEET WITH NO
SIGNIFICANT WEATHER AND/OR OBSTRUCTIONS TO VISIBILITY.

* - STATION DOES NOT REPORT WEATHER SUCH AS PRECIPITATION OR FOG.

+ - STATION NOT QUALITY CONTROLLED BY THE NATIONAL WEATHER SERVICE.
    USE DATA WITH CAUTION...ESPECIALLY DEWPOINT AND RELATIVE
    HUMIDITY OBSERVATIONS.

INZ001>003-010>013-019-020-180700-
NORTHWEST INDIANA

CITY           SKY/WX    TMP DP  RH WIND       PRES   REMARKS
VALPARAISO     CLEAR     49  46  90 CALM      30.05R
6HR MIN TEMP:  48; 6HR MAX TEMP:  60;


$$

LMZ046-743>745-180700-
SOUTHERN LAKE MICHIGAN

STATION/POSITION TIME  TEMP WIND        PRES
                       AIR  DIR/SP/G
                 (UTC) (F)  (DEG/KT/KT) (MB)
MICHIGAN CITY    0500   55  100/  7/  8   N/A

$$

INZ004-005-014>016-021>024-180700-
NORTH CENTRAL INDIANA

CITY           SKY/WX    TMP DP  RH WIND       PRES   REMARKS
GOSHEN         CLEAR     45  42  89 CALM      30.05R
6HR MIN TEMP:  45; 6HR MAX TEMP:  61;

SOUTH BEND     CLEAR     46  43  89 CALM      30.05S
6HR MIN TEMP:  46; 6HR MAX TEMP:  60;


$$

INZ006>009-017-018-025>027-180700-
NORTHEAST INDIANA

CITY           SKY/WX    TMP DP  RH WIND       PRES   REMARKS
ANGOLA *+      CLEAR     46  46 100 CALM      30.04S
FORT WAYNE     PTCLDY    47  44  90 CALM      30.05R
6HR MIN TEMP:  47; 6HR MAX TEMP:  61;


$$

INZ028-029-035-036-043>045-051>053-180700-
WEST CENTRAL INDIANA

CITY           SKY/WX    TMP DP  RH WIND       PRES   REMARKS
GREENCASTLE +  CLOUDY    52  50  93 CALM      30.04S
LAFAYETTE      CLOUDY    51  50  96 CALM      30.04S
6HR MIN TEMP:  50; 6HR MAX TEMP:  59;

TERRE HAUTE    CLOUDY    53  51  93 CALM      30.03S
6HR MIN TEMP:  51; 6HR MAX TEMP:  61;


$$

INZ030>032-037>040-046>048-054>057-064-065-180700-
CENTRAL INDIANA

CITY           SKY/WX    TMP DP  RH WIND       PRES   REMARKS
INDIANAPOLIS   PTCLDY    54  49  83 CALM      30.03R
6HR MIN TEMP:  53; 6HR MAX TEMP:  62;

-EAGLE CREEK   CLEAR     55  49  80 NW5       30.03S
6HR MIN TEMP:  55; 6HR MAX TEMP:  62;

KOKOMO *+      CLOUDY    52  46  82 CALM      30.05R
MT COMFORT *+  CLEAR     48 N/A N/A CALM      30.04S
SHELBYVILLE    CLEAR     50  47  89 CALM      30.03S
6HR MIN TEMP:  50; 6HR MAX TEMP:  61;


$$

INZ033-034-041-042-049-050-058-059-180700-
EAST CENTRAL INDIANA

CITY           SKY/WX    TMP DP  RH WIND       PRES   REMARKS
MUNCIE         CLOUDY    50  47  89 CALM      30.04R
6HR MIN TEMP:  48; 6HR MAX TEMP:  60;


$$

INZ060-061-067>069-081>083-085>088-180700-
SOUTHWEST INDIANA

CITY           SKY/WX    TMP DP  RH WIND       PRES   REMARKS
EVANSVILLE     CLOUDY    63  54  72 NE5       30.01S
6HR MIN TEMP:  62; 6HR MAX TEMP:  66;


$$

INZ062-063-066-070>080-084-089>092-180700-
SOUTH CENTRAL AND SOUTHEAST INDIANA

CITY           SKY/WX    TMP DP  RH WIND       PRES   REMARKS
BLOOMINGTON    MOCLDY    50  48  93 N5        30.03S FOG
6HR MIN TEMP:  47; 6HR MAX TEMP:  61; 6HR PCP: TRACE;


$$




USA.gov is the U.S. government's official web portal to all federal, state and local government web resources and services.